User: anonymous   Login
Location: Oshawa
(43.9000°N, 78.8670°W)
Time: 17:54:10
(UTC-04:00)
Language:

CARTOSAT-1 - Orbit

View from above orbital plane
View from above orbital plane
View from above satellite
View from above satellite

Ground track
Ground track

The orbit data is extracted from the following two-line orbital elements,

1 28649U 05017A   16126.40807843  .00000424  00000-0  58124-4 0  9996
2 28649  97.9000 200.1495 0001180 344.9370  15.1814 14.83432825595523
Epoch (UTC): 05 May 2016 09:47:37
Eccentricity: 0.0001180
inclination: 97.9000°
perigee height: 617 km
apogee height: 619 km
right ascension of ascending node: 200.1495°
argument of perigee: 344.9370°
revolutions per day: 14.83432825
mean anomaly at epoch: 15.1814°
orbit number at epoch: 59552

The dashed part of the orbit path shows where the satellite is in the earth's shadow,  

DLR